(199021) = 2005 WB98

Discovered at Kitt Peak on 2005-11-26 by Spacewatch.

Orbit

Orbit type: Main Belt

Note: WebGL enabled browser required.

epoch2024-03-31.0
epoch JD2460400.5
perihelion date2021-09-14.33022
perihelion JD2459471.83023
argument of perihelion (°)221.10908
ascending node (°)77.09549
inclination (°)6.97513
eccentricity0.1181866
perihelion distance (AU)2.0058605
Tisserand w.r.t. Jupiter3.6
ΔV w.r.t. Earth (km/sec)9.0
semimajor axis (AU)2.2746994
mean anomaly (°)266.79604
mean daily motion (°/day)0.28728840
aphelion distance (AU)2.544
period (years)3.43
P-vector [x]0.46787780
P-vector [y]-0.77578787
P-vector [z]-0.42337165
Q-vector [x]0.87583021
Q-vector [y]0.47116013
Q-vector [z]0.10454456
absolute magnitude16.78
phase slope0.15
uncertainty0
referenceE2024-GI3
observations used542
oppositions18
arc length (days)8780
first opposition used2000
last opposition used2024
residual rms (arc-secs)0.75
perturbers coarse indicatorM-v
perturbers precise indicator003Ek
first observation date used2000-03-29.0
last observation date used2024-04-12.0
computer nameMPCLINUX
JD of orbit computation2456966.766661
perihelion JD uncertainty (days)5.8520E-05
argument of perihelion uncertainty (°)2.9028E-05
ascending node uncertainty (°)2.3679E-05
inclination uncertainty (°)3.7584E-06
eccentricity uncertainty 3.3637E-08
perihelion distance uncertainty (AU)8.2073E-08
Minimum Orbit Intersection Distances (in AU)
for orbit epoch: 2460400.5, reference: E2024-GI3
Mercury1.55646
Venus1.27874
Earth0.9956
Mars0.57318
Jupiter2.61254
Saturn6.52813
Uranus15.9817
Neptune27.4597

Observations

533 total observations over interval: 2000 03 29.33222 – 2024 03 20.280614
These data are available for download (format description).

Date (UT) J2000 RA J2000 Dec Magn Location Ref
2000 03 29.33222 13 18 37.79 +03 31 42.6 19.7   704 – Lincoln Laboratory ETS, New Mexico MPS 162847
2000 03 29.34780 13 18 36.90 +03 31 47.2 19.6   704 – Lincoln Laboratory ETS, New Mexico MPS 162847
2000 03 29.36242 13 18 35.91 +03 31 53.5 19.8   704 – Lincoln Laboratory ETS, New Mexico MPS 162847
2000 03 29.37794 13 18 35.05 +03 31 57.4 19.8   704 – Lincoln Laboratory ETS, New Mexico MPS 162847
2001 09 16.40287 02 03 06.68 +01 10 49.7 18.9   704 – Lincoln Laboratory ETS, New Mexico MPS 162847
2001 09 16.42515 02 03 06.02 +01 10 43.3 19.4   704 – Lincoln Laboratory ETS, New Mexico MPS 162847
2001 09 16.46270 02 03 04.82 +01 10 35.3 19.4   704 – Lincoln Laboratory ETS, New Mexico MPS 162847
2001 09 16.47895 02 03 04.23 +01 10 32.2 19.7   704 – Lincoln Laboratory ETS, New Mexico MPS 162847
2001 09 18.402980 02 02 04.724 +01 02 30.68 19.79 V 645 – Apache Point-Sloan Digital Sky Survey MPS 162847
2001 09 18.406452 02 02 04.603 +01 02 29.83 20.68   645 – Apache Point-Sloan Digital Sky Survey MPS 162847
2001 09 21.315160 02 00 21.325 +00 49 58.43 19.78 V 645 – Apache Point-Sloan Digital Sky Survey MPS 162847
2001 09 21.318632 02 00 21.188 +00 49 57.56 20.68   645 – Apache Point-Sloan Digital Sky Survey MPS 162847
2001 09 25.36798 01 57 32.39 +00 31 55.1 19.5   704 – Lincoln Laboratory ETS, New Mexico MPS 162847
2001 09 25.38276 01 57 31.65 +00 31 50.5 19.1   704 – Lincoln Laboratory ETS, New Mexico MPS 162847
2001 09 25.39829 01 57 30.90 +00 31 46.3 19.4   704 – Lincoln Laboratory ETS, New Mexico MPS 162847
2001 10 10.38700 01 43 54.52 -00 33 35.4 20.2   644 – Palomar Mountain/NEAT MPS 162847
2001 10 10.40808 01 43 53.17 -00 33 40.4 20.3   644 – Palomar Mountain/NEAT MPS 162847
2001 10 10.42915 01 43 51.80 -00 33 45.6 19.7   644 – Palomar Mountain/NEAT MPS 162847
2001 10 19.27697 01 34 38.51 -01 03 53.4 19.1 R 699 – Lowell Observatory-LONEOS MPS 162847
2001 10 19.30034 01 34 36.95 -01 03 58.0   699 – Lowell Observatory-LONEOS MPS 162847
2001 10 19.32377 01 34 35.38 -01 04 00.9   699 – Lowell Observatory-LONEOS MPS 162847
2001 10 19.34722 01 34 33.86 -01 04 04.5   699 – Lowell Observatory-LONEOS MPS 162847
2001 11 18.246440 01 10 48.550 -01 01 54.37 20.16 V 645 – Apache Point-Sloan Digital Sky Survey MPS 162847
2001 11 18.249912 01 10 48.454 -01 01 53.65 21.15   645 – Apache Point-Sloan Digital Sky Survey MPS 162847
2003 02 23.20775 09 37 36.76 +25 12 50.2 20.0 R 699 – Lowell Observatory-LONEOS MPS 162847
2003 02 23.23282 09 37 35.40 +25 12 56.1   699 – Lowell Observatory-LONEOS MPS 162847
2003 02 23.25789 09 37 33.73 +25 13 04.4   699 – Lowell Observatory-LONEOS MPS 162847
2003 02 23.29239 09 37 31.53 +25 13 14.2   699 – Lowell Observatory-LONEOS MPS 162847
2004 07 29.54462 20 03 49.95 -30 24 50.5 18.6 R E12 – Siding Spring Survey MPS 162847
2004 07 29.55642 20 03 49.09 -30 24 53.7 19.4 R E12 – Siding Spring Survey MPS 162847
2004 07 29.56815 20 03 48.52 -30 24 57.8 19.1 R E12 – Siding Spring Survey MPS 162847
2004 07 29.57969 20 03 47.78 -30 25 01.9 17.8 R E12 – Siding Spring Survey MPS 162847
2005 11 26.40248 06 52 10.64 +24 52 06.8   691 – Steward Observatory, Kitt Peak-Spacewatch MPS 153984
2005 11 26.41986 06 52 09.97 +24 52 10.9   691 – Steward Observatory, Kitt Peak-Spacewatch MPS 153984
2005 11 26.43718 06 52 09.29 +24 52 15.0   691 – Steward Observatory, Kitt Peak-Spacewatch MPS 153984
2005 11 30.43593 06 49 26.83 +25 08 10.3 20.2 V 691 – Steward Observatory, Kitt Peak-Spacewatch MPS 153984
2005 11 30.45325 06 49 26.03 +25 08 13.6 20.4 V 691 – Steward Observatory, Kitt Peak-Spacewatch MPS 153984
2005 11 30.47059 06 49 25.22 +25 08 18.1 20.5 V 691 – Steward Observatory, Kitt Peak-Spacewatch MPS 153984
2005 12 04.37125 06 46 17.79 +25 24 16.0 20.3 V 691 – Steward Observatory, Kitt Peak-Spacewatch MPS 153984
2005 12 04.38944 06 46 16.82 +25 24 20.4 20.3 V 691 – Steward Observatory, Kitt Peak-Spacewatch MPS 153984
2005 12 04.41203 06 46 15.67 +25 24 26.3 20.9 V 691 – Steward Observatory, Kitt Peak-Spacewatch MPS 153984
2007 04 16.33109 14 35 22.38 -05 56 54.2 19.4 V 703 – Catalina Sky Survey MPS 206947
2007 04 16.33853 14 35 22.05 -05 56 53.3 19.4 V 703 – Catalina Sky Survey MPS 206947
2007 04 16.34594 14 35 21.58 -05 56 50.2 19.4 V 703 – Catalina Sky Survey MPS 206947
2007 04 16.35335 14 35 21.15 -05 56 49.8 19.1 V 703 – Catalina Sky Survey MPS 206947
2007 04 17.26989 14 34 30.23 -05 53 55.4 19.1 R 699 – Lowell Observatory-LONEOS MPS 206947
2007 04 17.28815 14 34 29.16 -05 53 52.6   699 – Lowell Observatory-LONEOS MPS 206947
2007 04 17.30635 14 34 28.11 -05 53 49.6   699 – Lowell Observatory-LONEOS MPS 206947
2007 04 17.32459 14 34 27.04 -05 53 46.0   699 – Lowell Observatory-LONEOS MPS 206947
2007 04 22.22160 14 29 39.84 -05 38 58.0 19.4 V 691 – Steward Observatory, Kitt Peak-Spacewatch MPS 208106
2007 04 22.24116 14 29 38.61 -05 38 54.5 19.5 V 691 – Steward Observatory, Kitt Peak-Spacewatch MPS 208106
2007 04 22.26024 14 29 37.42 -05 38 51.1 19.5 V 691 – Steward Observatory, Kitt Peak-Spacewatch MPS 208106
2007 04 22.26500 14 29 37.14 -05 38 50.2 19.4 V 703 – Catalina Sky Survey MPS 208106
2007 04 22.27568 14 29 36.31 -05 38 48.6 19.1 V 703 – Catalina Sky Survey MPS 208106
2007 04 22.28630 14 29 35.77 -05 38 46.5 19.4 V 703 – Catalina Sky Survey MPS 208106
2007 04 22.29688 14 29 35.08 -05 38 45.7 19.1 V 703 – Catalina Sky Survey MPS 208106
2007 04 24.20843 14 27 38.24 -05 33 22.0 19.6 V 691 – Steward Observatory, Kitt Peak-Spacewatch MPS 208106
2007 04 24.22604 14 27 37.14 -05 33 19.0 19.5 V 691 – Steward Observatory, Kitt Peak-Spacewatch MPS 208107
2007 04 24.24364 14 27 36.00 -05 33 16.3 19.6 V 691 – Steward Observatory, Kitt Peak-Spacewatch MPS 208107
2007 05 09.32818 14 11 57.15 -05 04 04.0 19.2 V 703 – Catalina Sky Survey MPS 208970
2007 05 09.33860 14 11 56.47 -05 04 02.6 19.4 V 703 – Catalina Sky Survey MPS 208970
2007 05 12.03083 14 09 19.28 -05 02 04.7 20.0 V 941 – Observatorio Pla D'Arguines MPS 208970
2007 05 12.03310 14 09 19.15 -05 02 04.7 20.1 V 941 – Observatorio Pla D'Arguines MPS 208970
2007 05 12.03423 14 09 19.08 -05 02 04.6 20.1 V 941 – Observatorio Pla D'Arguines MPS 208970
2007 05 12.03763 14 09 18.92 -05 02 04.8 19.8 V 941 – Observatorio Pla D'Arguines MPS 208970
2007 05 12.89626 14 08 30.48 -05 01 42.9 19.9 V 941 – Observatorio Pla D'Arguines MPS 208970
2007 05 12.90905 14 08 29.83 -05 01 41.5 19.9 V 941 – Observatorio Pla D'Arguines MPS 208970
2007 05 12.91182 14 08 29.63 -05 01 41.1 19.9 V 941 – Observatorio Pla D'Arguines MPS 208970
2007 05 23.21534 13 59 56.97 -05 07 10.0 19.0 V 703 – Catalina Sky Survey MPS 210153
2007 05 23.22127 13 59 56.83 -05 07 11.6 19.0 V 703 – Catalina Sky Survey MPS 210153
2007 05 23.22722 13 59 56.65 -05 07 12.2 19.6 V 703 – Catalina Sky Survey MPS 210153
2007 05 23.23316 13 59 56.32 -05 07 13.6 19.1 V 703 – Catalina Sky Survey MPS 210153
2008 10 01.43362 03 19 01.82 +10 14 44.9 19.9 V 691 – Steward Observatory, Kitt Peak-Spacewatch MPS 257959
2008 10 01.45125 03 19 01.35 +10 14 42.4 19.8 V 691 – Steward Observatory, Kitt Peak-Spacewatch MPS 257959
2008 10 01.46888 03 19 00.89 +10 14 41.3 20.0 V 691 – Steward Observatory, Kitt Peak-Spacewatch MPS 257959
2008 10 25.30083 03 00 47.01 +09 22 38.7 19.2 V 703 – Catalina Sky Survey MPS 261563
2008 10 25.30513 03 00 46.71 +09 22 37.8 19.6   704 – Lincoln Laboratory ETS, New Mexico MPS 264611
2008 10 25.31234 03 00 46.26 +09 22 38.5 19.4 V 703 – Catalina Sky Survey MPS 261563
2008 10 25.32400 03 00 45.46 +09 22 36.0 19.5 V 703 – Catalina Sky Survey MPS 261563
2008 10 25.32829 03 00 45.18 +09 22 37.1 19.7   704 – Lincoln Laboratory ETS, New Mexico MPS 264611
2008 10 25.33565 03 00 44.82 +09 22 34.1 19.3 V 703 – Catalina Sky Survey MPS 261563
2008 10 25.33976 03 00 44.40 +09 22 33.9 20.0   704 – Lincoln Laboratory ETS, New Mexico MPS 264611
2008 10 25.35122 03 00 43.77 +09 22 31.2 19.7   704 – Lincoln Laboratory ETS, New Mexico MPS 264611
2008 10 30.25686 02 55 29.04 +09 11 31.4 19.3   704 – Lincoln Laboratory ETS, New Mexico MPS 261563
2008 10 30.26860 02 55 28.19 +09 11 28.7 19.7   704 – Lincoln Laboratory ETS, New Mexico MPS 261564
2008 10 30.29187 02 55 26.65 +09 11 26.9 19.2   704 – Lincoln Laboratory ETS, New Mexico MPS 261564
